Location: Civry
(47.2902°N, 4.6156°E)
Time: 03:28:20
(UTC+00:00)

Cosmos 2181 Rocket - Pass Details

Date: 09 April 2020
Orbit: 952 x 1014 km, 82.9° (Epoch: 04 June)

Event Time Altitude Azimuth Distance (km) Brightness Sun altitude
Exits shadow 19:28:07 - 159° (SSE) 3,394 6.4 -11.3°
Reaches altitude 10° 19:30:01 10° 153° (SSE) 2,724 5.9 -11.6°
Maximum altitude 19:35:41 38° 88° (E) 1,442 4.5 -12.4°
Drops below altitude 10° 19:41:18 10° 23° (NNE) 2,706 6.4 -13.3°
Sets 19:43:57 0° 16° (NNE) 3,651 7.2 -13.7°
